[[{"header":{"parameterUnit":"m.s-1","parameterCategory":1,"la1":30.2991,"la2":30.254,"lo1":-89.0895,"lo2":-89.0444,"dy":0.0017,"dx":0.0017,"nx":28,"ny":28,"refTime":"2023-10-15T09:00:00:Z","depth":0,"parameterNumber":2,"parameterNumberName":"U-component_of_WINDS"},"data":[0,0,0,0,0,0,0,0,0,0,0,0,0,0,0,0,0,0,0,0,0,0,0,0,0,0,0,0,0,0,0,0,0,0,0,0,0,0,0,0,0,0,0,0,0,0,0,0,0,0,0,0,0,0,0,0,0,0,0.7736,0.7736,0,0.7709,0.7709,0.7708,0.7702,0.7702,0.7702,0.7702,0.7674,0.7673,0.7672,0,0,0,0,0,0,0,0,0,0,0,0,0,0.7781,0.778,0.7736,0.7736,0.7735,0.7709,0.7709,0.7708,0.7702,0.7702,0.7702,0.7702,0.7674,0.7673,0.7672,0,0,0,0,0,0,0,0,0,0,0,0,0,0.7759,0.778,0.7736,0.7729,0.7728,0.7709,0.7709,0.7708,0.7702,0.7702,0.7702,0.7702,0.7675,0.7673,0.7672,0.7658,0,0,0.7668,0.7667,0,0,0,0,0,0,0,0,0.776,0.7757,0.773,0.7729,0.7728,0.7709,0.7714,0.7691,0.7702,0.7712,0.7702,0.7703,0.7685,0.7683,0.7678,0.7657,0.7656,0.7668,0.7667,0.7666,0.7666,0,0,0,0,0,0,0,0.7762,0.7758,0.7725,0.773,0.7729,0.7727,0.7724,0.771,0.7697,0.7711,0.771,0.7707,0.7685,0.7679,0.7677,0.7655,0.7668,0.7666,0.7666,0.7665,0.7623,0.7623,0,0,0,0,0,0,0.7764,0.776,0.7726,0.7724,0.7745,0.7726,0.7723,0.7715,0.7697,0.7695,0.7707,0.7707,0.7681,0.7678,0.7676,0.7659,0.7666,0.7665,0.7664,0.7623,0.7623,0.7623,0,0,0,0,0,0,0.7765,0.7762,0.7727,0.7742,0.7737,0.7725,0.7716,0.7714,0.7708,0.7695,0.7692,0.7703,0.7681,0.7678,0.7663,0.7658,0.7664,0.7663,0.7624,0.7623,0.7623,0.7624,0,0,0,0,0,0,0.7767,0.7762,0.7756,0.7742,0.7737,0.7715,0.7716,0.7714,0.7706,0.7706,0.769,0.7688,0.7681,0.7665,0.7662,0.7656,0.7662,0.7624,0.7623,0.7623,0.7625,0.7624,0.7624,0,0,0,0,0,0.7768,0.7758,0.7756,0.7752,0.773,0.7714,0.7711,0.7704,0.7706,0.77,0.7692,0.7689,0.7659,0.7664,0.766,0.7653,0.7624,0.7624,0.7623,0.7625,0.7624,0.7624,0,0,0,0,0,0,0.7771,0.7756,0.7754,0.7738,0.7728,0.7713,0.7706,0.7703,0.7692,0.7692,0.7683,0.7679,0.7665,0.7658,0.7663,0.764,0.7642,0.764,0.7645,0.7644,0.7643,0.7645,0.7661,0,0,0,0,0,0.7771,0.776,0.7746,0.7734,0.7729,0.7718,0.7711,0.7707,0.7695,0.7691,0.7681,0.767,0.7659,0.7651,0.7639,0.7624,0.7621,0.7618,0.7618,0.7617,0.7616,0.7607,0.7606,0.762,0.762,0.762,0,0,0.7768,0.7758,0.7751,0.7734,0.7725,0.7714,0.7715,0.7703,0.7694,0.7689,0.7674,0.7667,0.7654,0.7639,0.7632,0.7633,0.7611,0.7616,0.7616,0.7615,0.7607,0.7605,0.7604,0.762,0.762,0.762,0,0,0.7758,0.7749,0.7738,0.7729,0.7717,0.771,0.7708,0.7694,0.7689,0.7674,0.767,0.766,0.764,0.7631,0.7624,0.7612,0.7609,0.7609,0.7605,0.7597,0.7596,0.7595,0.7591,0.7589,0.7608,0.7608,0.7608,0,0.7756,0.7739,0.7732,0.7721,0.7713,0.7709,0.7697,0.769,0.7674,0.7669,0.767,0.7645,0.7636,0.7619,0.7616,0.7611,0.7608,0.761,0.7597,0.7596,0.7595,0.759,0.7589,0.7608,0.7608,0.7608,0.7608,0,0.7737,0.7726,0.7718,0.7704,0.7696,0.7684,0.7676,0.7668,0.7665,0.7658,0.7644,0.7633,0.762,0.7616,0.7612,0.7598,0.7599,0.7599,0.76,0.7594,0.7589,0.7588,0.7608,0.7608,0.7608,0.7608,0,0,0.7727,0.7709,0.7707,0.77,0.7686,0.7677,0.7666,0.7654,0.7647,0.7637,0.7627,0.7611,0.7611,0.7603,0.7599,0.7592,0.7583,0.7592,0.7592,0.7591,0.7568,0.7567,0.7565,0.7581,0.7581,0.7581,0.7569,0,0.7714,0.7694,0.7688,0.7671,0.766,0.7657,0.7647,0.7638,0.7632,0.7622,0.7615,0.7604,0.7605,0.76,0.7593,0.7585,0.7578,0.7586,0.7572,0.7571,0.7574,0.7563,0.7563,0.7552,0.7567,0.7567,0.7566,0,0.7696,0.7686,0.7668,0.7657,0.7652,0.7643,0.7631,0.7622,0.7612,0.7608,0.76,0.7596,0.7585,0.7588,0.7572,0.7578,0.7572,0.7567,0.7567,0.7564,0.7568,0.756,0.7548,0.7546,0.7564,0.7564,0.7564,0,0.769,0.7672,0.7659,0.7653,0.7639,0.7634,0.7628,0.7618,0.7611,0.7601,0.7596,0.7585,0.7578,0.757,0.7563,0.7566,0.7548,0.755,0.7544,0.7544,0.7539,0.7539,0.7525,0.7537,0.7537,0.7537,0.7537,0,0.7676,0.7665,0.7655,0.7647,0.7635,0.7629,0.7617,0.7611,0.7603,0.7593,0.759,0.7581,0.7573,0.7564,0.7559,0.7546,0.7544,0.754,0.7539,0.754,0.754,0.7535,0.7535,0.7536,0.7536,0.7537,0.7537,0,0.7665,0.7659,0.7645,0.7633,0.763,0.7622,0.7612,0.7604,0.7599,0.7587,0.7584,0.7575,0.7564,0.7557,0.7543,0.7539,0.7525,0.7525,0.7529,0.7528,0.7522,0.7522,0.7503,0.75,0.7514,0.7514,0.7514,0,0.7656,0.7648,0.7636,0.763,0.7624,0.7614,0.7607,0.7601,0.7594,0.7583,0.7576,0.7565,0.7555,0.7538,0.753,0.7519,0.7518,0.7512,0.7516,0.7518,0.7517,0.7517,0.7516,0.7511,0.7511,0.7511,0.751,0,0.7641,0.7638,0.7629,0.7618,0.761,0.7602,0.7593,0.7588,0.7581,0.7573,0.7562,0.7555,0.7541,0.753,0.7518,0.7512,0.751,0.751,0.7507,0.7508,0.7511,0.7509,0.7526,0.751,0.751,0.751,0.751,0.751,0.763,0.7623,0.7614,0.7603,0.7597,0.7589,0.7581,0.7575,0.7566,0.7554,0.7551,0.754,0.753,0.7515,0.7509,0.75,0.7501,0.7498,0.7497,0.7496,0.7496,0.7513,0.7498,0.7498,0.7498,0.7498,0.7498,0,0.7614,0.7609,0.7599,0.7588,0.758,0.7579,0.757,0.7563,0.7553,0.7545,0.7536,0.7524,0.7513,0.7505,0.7495,0.7489,0.7488,0.7486,0.7486,0.7485,0.7496,0.7498,0.7487,0.7487,0.7487,0.7487,0.7487,0.7487,0.7605,0.7592,0.7589,0.7573,0.7568,0.7556,0.7551,0.7544,0.7538,0.7524,0.7515,0.7511,0.7503,0.7492,0.7482,0.748,0.7476,0.7475,0.7473,0.7483,0.7484,0.7485,0.7487,0.7474,0.7474,0.7462,0.7462,0.7462]},{"header":{"parameterUnit":"m.s-1","parameterCategory":1,"la1":30.2991,"la2":30.254,"lo1":-89.0895,"lo2":-89.0444,"dy":0.0017,"dx":0.0017,"nx":28,"ny":28,"refTime":"2023-10-15T09:00:00:Z","depth":0,"parameterNumber":3,"parameterNumberName":"V-component_of_WINDS"},"data":[0,0,0,0,0,0,0,0,0,0,0,0,0,0,0,0,0,0,0,0,0,0,0,0,0,0,0,0,0,0,0,0,0,0,0,0,0,0,0,0,0,0,0,0,0,0,0,0,0,0,0,0,0,0,0,0,0,0,-6.9974,-6.9976,0,-7.0152,-7.0154,-7.0156,-7.013,-7.0127,-7.0124,-7.0121,-7.0297,-7.0304,-7.0311,0,0,0,0,0,0,0,0,0,0,0,0,0,-6.9609,-6.9615,-6.9974,-6.9976,-6.9979,-7.0152,-7.0154,-7.0156,-7.0131,-7.0127,-7.0123,-7.012,-7.0294,-7.0303,-7.0312,0,0,0,0,0,0,0,0,0,0,0,0,0,-6.9775,-6.9618,-6.9974,-6.9987,-6.999,-7.0151,-7.0154,-7.0157,-7.0131,-7.0127,-7.0122,-7.0118,-7.0291,-7.0302,-7.0313,-7.0471,0,0,-7.0347,-7.0352,0,0,0,0,0,0,0,0,-6.9765,-6.9788,-6.9983,-6.9986,-6.999,-7.0114,-7.0089,-7.0262,-7.0132,-7.0077,-7.0121,-7.0116,-7.0239,-7.0254,-7.0297,-7.0479,-7.0487,-7.0348,-7.0355,-7.036,-7.0363,0,0,0,0,0,0,0,-6.9754,-6.978,-7.0044,-6.9985,-6.999,-6.9982,-7.0001,-7.0122,-7.0181,-7.0082,-7.008,-7.0102,-7.024,-7.0287,-7.0301,-7.0489,-7.0348,-7.0358,-7.0365,-7.0369,-7.0812,-7.0817,0,0,0,0,0,0,-6.974,-6.9771,-7.0039,-7.005,-6.9865,-6.9993,-7.0013,-7.0079,-7.018,-7.0191,-7.0106,-7.01,-7.027,-7.0288,-7.0307,-7.0501,-7.036,-7.037,-7.0377,-7.0807,-7.0814,-7.0819,0,0,0,0,0,0,-6.9732,-6.9764,-7.0031,-6.991,-6.9944,-7.0004,-7.0077,-7.0085,-7.0131,-7.0198,-7.0207,-7.0143,-7.0267,-7.0291,-7.0432,-7.0507,-7.0375,-7.0385,-7.0801,-7.0809,-7.0816,-7.0889,0,0,0,0,0,0,-6.9721,-6.9761,-6.9823,-6.9912,-6.995,-7.0155,-7.0082,-7.0091,-7.0151,-7.0146,-7.0235,-7.0245,-7.0265,-7.0415,-7.0443,-7.052,-7.0394,-7.0795,-7.0805,-7.0814,-7.088,-7.0898,-7.0913,0,0,0,0,0,-6.9708,-6.9834,-6.9826,-6.9858,-7.0029,-7.0159,-7.0181,-7.0203,-7.0157,-7.0219,-7.0262,-7.0242,-7.0494,-7.043,-7.046,-7.0542,-7.079,-7.0802,-7.0813,-7.0872,-7.0894,-7.0913,0,0,0,0,0,0,-6.9749,-6.9845,-6.9838,-6.9996,-7.007,-7.0154,-7.0233,-7.0225,-7.0312,-7.0303,-7.0325,-7.0345,-7.0488,-7.0528,-7.0455,-7.0701,-7.0636,-7.0654,-7.067,-7.0691,-7.0708,-7.0696,-7.0403,0,0,0,0,0,-6.9776,-6.9876,-6.9954,-7.0086,-7.0124,-7.0172,-7.023,-7.0241,-7.0317,-7.0348,-7.0401,-7.0474,-7.057,-7.0633,-7.0724,-7.0885,-7.0905,-7.0957,-7.0973,-7.0987,-7.1002,-7.1093,-7.1118,-7.0857,-7.0857,-7.0856,0,0,-6.9834,-6.9899,-6.996,-7.0096,-7.0155,-7.0257,-7.0199,-7.0308,-7.0384,-7.0363,-7.0501,-7.0543,-7.0626,-7.0778,-7.0847,-7.0816,-7.1079,-7.1001,-7.1011,-7.102,-7.1108,-7.1132,-7.1154,-7.0864,-7.0863,-7.0862,0,0,-6.9991,-7.005,-7.0168,-7.0229,-7.032,-7.0351,-7.038,-7.0467,-7.0495,-7.0633,-7.0621,-7.071,-7.0874,-7.0935,-7.0987,-7.1171,-7.1157,-7.12,-7.1288,-7.1376,-7.1397,-7.1415,-7.1483,-7.1507,-7.1215,-7.1215,-7.1215,0,-7.0051,-7.0206,-7.0229,-7.0342,-7.0402,-7.0392,-7.0512,-7.0569,-7.0683,-7.0725,-7.0689,-7.0897,-7.0952,-7.112,-7.1165,-7.1207,-7.124,-7.119,-7.1392,-7.1411,-7.1428,-7.1493,-7.1518,-7.122,-7.122,-7.1219,-7.1219,0,-7.0275,-7.0383,-7.0467,-7.0583,-7.0652,-7.0767,-7.0808,-7.0875,-7.0881,-7.0917,-7.1058,-7.1124,-7.1231,-7.1271,-7.1275,-7.144,-7.1419,-7.1387,-7.1321,-7.1458,-7.1519,-7.1544,-7.1227,-7.1225,-7.1224,-7.1223,0,0,-7.0462,-7.0592,-7.0622,-7.0676,-7.0776,-7.0859,-7.0974,-7.1081,-7.114,-7.1219,-7.1317,-7.1457,-7.143,-7.1489,-7.1501,-7.1578,-7.1723,-7.1537,-7.154,-7.1572,-7.1911,-7.1936,-7.1964,-7.1713,-7.1718,-7.1722,-7.1905,0,-7.0631,-7.0838,-7.0864,-7.1046,-7.1147,-7.114,-7.124,-7.1312,-7.1348,-7.1438,-7.1477,-7.1578,-7.1532,-7.1569,-7.1645,-7.1689,-7.1791,-7.1676,-7.1804,-7.1809,-7.1786,-7.1996,-7.2022,-7.2191,-7.1928,-7.1933,-7.1935,0,-7.0856,-7.0947,-7.1141,-7.123,-7.1273,-7.1363,-7.1465,-7.1551,-7.1632,-7.1653,-7.1722,-7.1724,-7.1843,-7.1772,-7.1936,-7.1857,-7.191,-7.194,-7.1947,-7.1961,-7.1882,-7.2018,-7.2245,-7.2272,-7.1973,-7.197,-7.1967,0,-7.0977,-7.1146,-7.1285,-7.133,-7.1438,-7.1502,-7.1549,-7.1626,-7.169,-7.1777,-7.1819,-7.1918,-7.1973,-7.2049,-7.2079,-7.2024,-7.2242,-7.2173,-7.2263,-7.2263,-7.2311,-7.2307,-7.2552,-7.2342,-7.2341,-7.2341,-7.234,0,-7.1164,-7.1283,-7.1341,-7.1427,-7.1561,-7.1589,-7.172,-7.1764,-7.1834,-7.1927,-7.1925,-7.2012,-7.2045,-7.2137,-7.216,-7.2294,-7.2318,-7.2338,-7.2343,-7.234,-7.2338,-7.2377,-7.2367,-7.2348,-7.2346,-7.2345,-7.2344,0,-7.1322,-7.1365,-7.1517,-7.1607,-7.1632,-7.1727,-7.1804,-7.1887,-7.1923,-7.2041,-7.207,-7.2127,-7.2236,-7.2273,-7.2403,-7.2419,-7.2576,-7.2569,-7.2549,-7.2551,-7.264,-7.2633,-7.2921,-7.2961,-7.2722,-7.2724,-7.2726,0,-7.1439,-7.1532,-7.1634,-7.1698,-7.1749,-7.1851,-7.1917,-7.1948,-7.2016,-7.2118,-7.2188,-7.2298,-7.2387,-7.2561,-7.2613,-7.2714,-7.2711,-7.2805,-7.2726,-7.2721,-7.2716,-7.2711,-7.2721,-7.282,-7.2823,-7.2825,-7.2826,0,-7.1645,-7.1663,-7.1759,-7.1865,-7.1944,-7.2028,-7.2108,-7.216,-7.2203,-7.228,-7.2393,-7.2463,-7.2599,-7.2708,-7.2811,-7.2858,-7.285,-7.2851,-7.2878,-7.2876,-7.2862,-7.2874,-7.2592,-7.2844,-7.2843,-7.2841,-7.284,-7.284,-7.1788,-7.1871,-7.1957,-7.2065,-7.213,-7.2206,-7.229,-7.2338,-7.2434,-7.2549,-7.256,-7.2683,-7.2764,-7.2903,-7.2955,-7.3051,-7.3024,-7.3062,-7.3072,-7.3082,-7.309,-7.2846,-7.3069,-7.3068,-7.3068,-7.3068,-7.3067,0,-7.1996,-7.2051,-7.2151,-7.2266,-7.2351,-7.2339,-7.2428,-7.25,-7.2609,-7.2686,-7.2775,-7.2906,-7.3013,-7.3074,-7.318,-7.3245,-7.3244,-7.3272,-7.3268,-7.328,-7.3106,-7.3074,-7.3271,-7.3271,-7.3271,-7.3271,-7.3271,-7.3271,-7.2114,-7.2255,-7.2284,-7.2457,-7.2511,-7.2634,-7.2686,-7.2757,-7.2819,-7.2967,-7.3057,-7.3096,-7.3167,-7.3279,-7.3376,-7.3391,-7.3431,-7.3462,-7.3475,-7.3312,-7.3291,-7.3271,-7.3241,-7.347,-7.347,-7.3641,-7.3642,-7.3643]}]]